Rbgn^[z[y[W
メイン
   新天体発見情報
     Comet C/2017 G3 (PANSTARRS)
投稿するにはまず登録を

スレッド表示 | 古いものから 前のトピック | 次のトピック | 下へ
投稿者 スレッド
佐藤裕久
投稿日時: 2017-5-10 21:06
モデレータ
登録日: 2005-6-12
居住地: 日本
投稿: 2505
オンライン
Comet C/2017 G3 (PANSTARRS)

4月7.6日UT、Haleakalaにある1.8-m Pan-STARRS1望遠鏡で得た画像から外見上小惑星状天体が見つかった。
小惑星センターのPCCP webpageに公表後、佐藤英貴氏(東京都文京区, iTelescope天文台,0.51-m f/6.8 
アストログラフ, Mayhill近郊, ニューメキシコ州、遠隔操作;4月16.2日UT, 60秒露出20枚のスタックで、
この天体は強い集光の6"のコマがあり、p.a. 80°に伸びた20"の狭い尾がある。4".9の円形範囲で測定し
たこの彗星のw-バンド光度は19.5等であった)らCCD位置観測者によって彗星状と観測された。

発見位置は次のとおり、

     2017 UT             R.A. (2000) Decl.       Mag.
     Apr.  7.57471   15 03 26.84   +14 42 11.6   19.6
           7.58392   15 03 24.75   +14 42 29.2   19.7
           7.59311   15 03 22.69   +14 42 46.5   19.6
           7.60231   15 03 20.63   +14 43 04.0   19.5

楕円軌道要素と位置推算表は次のとおり、

Orbital elements:
    C/2017 G3 (PANSTARRS)
Epoch 2017 Mar. 28.0 TT = JDT 2457840.5
T 2017 Apr. 15.01529 TT                                 MPCW
q   2.5902445            (2000.0)            P               Q
z  +0.0040495      Peri.   73.08037     -0.83348440     -0.42536361
 +/-0.0010388      Node   279.46135     -0.53419409     +0.78344711
e   0.9895108      Incl.  159.05178     +0.14121055     +0.45307441
From 98 observations 2017 Apr. 7-20, mean residual 0".4.

    C/2017 G3 (PANSTARRS)
Epoch 2017 Feb. 16.0 TT = JDT 2457800.5
T 2017 Apr. 15.02334 TT                                 MPCW
q   2.5902342            (2000.0)            P               Q
z  +0.0040798      Peri.   73.07964     -0.83350083     -0.42531952
 +/-0.0010388      Node   279.45794     -0.53416215     +0.78346245
e   0.9894323      Incl.  159.05110     +0.14123444     +0.45308928
From 98 observations 2017 Apr. 7-20, mean residual 0".4.

Ephemeris:
    C/2017 G3 (PANSTARRS)
Date    TT    R. A. (2000) Decl.     Delta      r     Elong.  Phase   m1
2017 03 22    15 54 37.2 +06 13 20   1.9307  2.6028   122.3    18.9  19.6
...
2017 04 06    15 09 13.5 +13 52 15   1.7293  2.5920   142.0    13.8  19.3
...
2017 04 14    14 38 16.5 +17 59 58   1.6861  2.5903   147.8    11.9  19.3
...
2017 04 20    14 13 04.9 +20 46 40   1.6876  2.5908   147.3    12.1  19.3
2017 04 21    14 08 48.1 +21 11 59   1.6907  2.5910   146.9    12.2  19.3
2017 04 22    14 04 30.7 +21 36 29   1.6946  2.5913   146.3    12.4  19.3
...
2017 04 28    13 38 54.3 +23 44 54   1.7345  2.5939   140.8    14.2  19.3
...
2017 05 06    13 06 36.3 +25 43 40   1.8275  2.5998   130.6    17.1  19.5
...
2017 05 21    12 17 27.7 +27 08 09   2.0935  2.6183   110.0    21.3  19.8

(CBET 4386、MPEC 2017-H42)
スレッド表示 | 古いものから 前のトピック | 次のトピック | トップ

投稿するにはまず登録を
 
© 1999 Tsutomu Seki.